Location: Nairn
(57.5833°N, 3.8667°W)
Time: 03:06:00
(UTC+00:00)

Vanguard 1 Rocket - Pass Details

Date: 29 November 2020
Orbit: 655 x 4221 km, 34.3° (Epoch: 20 January)

Event Time Altitude Azimuth Distance (km) Brightness Sun altitude
Exits shadow 00:57:20 21° 128° (SE) 5,702 11.2 -52.6°
Drops below altitude 10° 01:04:44 10° 106° (ESE) 6,041 11.6 -52.3°
Sets 01:09:48 0° 95° (E) 6,558 11.9 -52.0°
